User: anonymous   Login
Location: Cluny
(50.9333°N, 112.8167°W)
Time: 13:13:56
(UTC-06:00)
Language:

Cosmos 1743 Rocket - Orbit

View from above orbital plane
View from above orbital plane
View from above satellite
View from above satellite

Ground track
Ground track

The orbit data is extracted from the following two-line orbital elements,

1 16720U 86034B   14295.93241270  .00000873  00000-0  10456-3 0  5922
2 16720 082.5556 063.9990 0021413 058.3247 081.0562 14.82832614535740
Epoch (UTC): 22 October 2014 22:22:40
Eccentricity: 0.0021413
inclination: 82.5556°
perigee height: 605 km
apogee height: 635 km
right ascension of ascending node: 63.9990°
argument of perigee: 58.3247°
revolutions per day: 14.82832614
mean anomaly at epoch: 81.0562°
orbit number at epoch: 53574

The dashed part of the orbit path shows where the satellite is in the earth's shadow,  

DLR